When you browse on this site, cookies collect data to enhance your experience and personalize the content and advertising you see.
Visit our Privacy Policy to learn more. By continuing to use the site, you agree to this use of cookies and data.
  • In Hungary
  • List of Countries
  • For 7 days
  • Water Temperature
  • Satellite Maps
  • Weather Map
  • News
  • Weather Widgets
  • user-avatar
    Login

    Hourly Weather Kweta

    Today, 20 November, Tuesday

    Time Temperature Precipitation Wind Pressure Humidity
    00:00 +9°C° 0 mm 1 mps 620 mmHg 31%
    01:00 +9°C° 0 mm 1 mps 619 mmHg 32%
    02:00 +8°C° 0 mm 1 mps 619 mmHg 32%
    03:00 +8°C° 0 mm 1 mps 619 mmHg 33%
    04:00 +8°C° 0 mm 1 mps 619 mmHg 34%
    05:00 +8°C° 0 mm 1 mps 620 mmHg 33%
    06:00 +9°C° 0 mm 1 mps 620 mmHg 31%
    07:00 +9°C° 0 mm 1 mps 621 mmHg 30%
    08:00 +11°C° 0 mm 1 mps 621 mmHg 26%
    09:00 +14°C° 0 mm 1 mps 622 mmHg 22%
    10:00 +16°C° 0 mm 1 mps 623 mmHg 18%
    11:00 +18°C° 0 mm 1 mps 623 mmHg 17%
    12:00 +19°C° 0 mm 1 mps 623 mmHg 15%
    13:00 +19°C° 0 mm 1 mps 622 mmHg 13%
    14:00 +19°C° 0 mm 1 mps 622 mmHg 13%
    15:00 +18°C° 0 mm 1 mps 622 mmHg 13%
    16:00 +18°C° 0 mm 1 mps 621 mmHg 14%
    17:00 +15°C° 0 mm 1 mps 621 mmHg 16%
    18:00 +13°C° 0 mm 1 mps 621 mmHg 18%
    19:00 +11°C° 0 mm 0 mps 620 mmHg 20%
    20:00 +10°C° 0 mm 0 mps 620 mmHg 21%
    21:00 +11°C° 0 mm 1 mps 620 mmHg 21%
    22:00 +10°C° 0 mm 1 mps 620 mmHg 22%
    23:00 +10°C° 0 mm 1 mps 619 mmHg 22%

    Tomorrow, 21 November, Wednesday

    Time Temperature Precipitation Wind Pressure Humidity
    00:00 +10°C° 0 mm 1 mps 619 mmHg 23%
    01:00 +9°C° 0 mm 1 mps 618 mmHg 23%
    02:00 +9°C° 0 mm 1 mps 618 mmHg 24%
    03:00 +9°C° 0 mm 1 mps 618 mmHg 25%
    04:00 +9°C° 0 mm 1 mps 618 mmHg 25%
    05:00 +9°C° 0 mm 1 mps 618 mmHg 25%
    06:00 +10°C° 0 mm 1 mps 619 mmHg 24%
    07:00 +10°C° 0 mm 1 mps 619 mmHg 23%
    08:00 +13°C° 0 mm 2 mps 620 mmHg 22%
    09:00 +15°C° 0 mm 2 mps 621 mmHg 20%
    10:00 +17°C° 0 mm 2 mps 622 mmHg 18%
    11:00 +18°C° 0 mm 3 mps 621 mmHg 19%
    12:00 +19°C° 0 mm 4 mps 621 mmHg 19%
    13:00 +19°C° 0 mm 4 mps 621 mmHg 20%
    14:00 +19°C° 0 mm 4 mps 620 mmHg 21%
    15:00 +18°C° 0 mm 4 mps 620 mmHg 22%
    16:00 +18°C° 0 mm 4 mps 620 mmHg 23%
    17:00 +17°C° 0 mm 3 mps 620 mmHg 25%
    18:00 +16°C° 0 mm 3 mps 620 mmHg 26%
    19:00 +15°C° 0 mm 2 mps 620 mmHg 28%
    20:00 +14°C° 0.2 mm 2 mps 620 mmHg 32%
    21:00 +14°C° 0.2 mm 2 mps 620 mmHg 35%
    22:00 +13°C° 0.2 mm 2 mps 620 mmHg 39%
    23:00 +12°C° 0.8 mm 2 mps 619 mmHg 46%

    Day after tomorrow, 22 November, Thursday

    Time Temperature Precipitation Wind Pressure Humidity
    00:00 +10°C° 0.8 mm 2 mps 619 mmHg 53%
    01:00 +10°C° 0.8 mm 2 mps 619 mmHg 60%
    02:00 +10°C° 0.6 mm 2 mps 619 mmHg 62%
    03:00 +9°C° 0.6 mm 2 mps 619 mmHg 64%
    04:00 +9°C° 0.6 mm 2 mps 618 mmHg 65%
    05:00 +9°C° 0 mm 2 mps 619 mmHg 66%
    06:00 +10°C° 0 mm 2 mps 619 mmHg 67%
    07:00 +11°C° 0 mm 1 mps 619 mmHg 67%
    08:00 +12°C° 0 mm 1 mps 620 mmHg 62%
    09:00 +13°C° 0 mm 1 mps 621 mmHg 57%
    10:00 +14°C° 0 mm 2 mps 621 mmHg 51%
    11:00 +15°C° 0 mm 2 mps 621 mmHg 47%
    12:00 +16°C° 0 mm 2 mps 621 mmHg 42%
    13:00 +16°C° 0 mm 2 mps 621 mmHg 37%
    14:00 +16°C° 0 mm 2 mps 620 mmHg 36%
    15:00 +16°C° 0 mm 2 mps 620 mmHg 36%
    16:00 +16°C° 0 mm 2 mps 620 mmHg 35%
    17:00 +15°C° 0 mm 1 mps 620 mmHg 38%
    18:00 +14°C° 0 mm 1 mps 621 mmHg 41%
    19:00 +13°C° 0 mm 1 mps 621 mmHg 44%
    20:00 +13°C° 0 mm 1 mps 621 mmHg 45%
    21:00 +12°C° 0 mm 1 mps 621 mmHg 46%
    22:00 +12°C° 0 mm 1 mps 621 mmHg 48%
    23:00 +11°C° 0 mm 1 mps 621 mmHg 49%

    23 November, Friday

    Time Temperature Precipitation Wind Pressure Humidity
    00:00 +11°C° 0 mm 1 mps 621 mmHg 50%
    01:00 +10°C° 0 mm 1 mps 620 mmHg 51%
    02:00 +10°C° 0 mm 1 mps 620 mmHg 52%
    03:00 +10°C° 0 mm 1 mps 620 mmHg 54%
    04:00 +9°C° 0 mm 1 mps 620 mmHg 55%
    05:00 +10°C° 0 mm 1 mps 621 mmHg 54%
    06:00 +10°C° 0 mm 1 mps 621 mmHg 53%
    07:00 +11°C° 0 mm 1 mps 622 mmHg 52%
    08:00 +12°C° 0 mm 2 mps 623 mmHg 46%
    09:00 +14°C° 0 mm 2 mps 624 mmHg 41%
    10:00 +16°C° 0 mm 2 mps 624 mmHg 36%
    11:00 +16°C° 0 mm 2 mps 624 mmHg 33%
    12:00 +17°C° 0 mm 2 mps 624 mmHg 30%
    13:00 +18°C° 0 mm 3 mps 623 mmHg 27%
    14:00 +18°C° 0 mm 2 mps 623 mmHg 27%
    15:00 +18°C° 0 mm 2 mps 623 mmHg 26%
    16:00 +17°C° 0 mm 2 mps 623 mmHg 26%
    17:00 +16°C° 0 mm 1 mps 623 mmHg 29%
    18:00 +15°C° 0 mm 1 mps 622 mmHg 33%
    19:00 +12°C° 0 mm 0 mps 622 mmHg 36%
    20:00 +12°C° 0 mm 0 mps 622 mmHg 37%
    21:00 +12°C° 0 mm 0 mps 622 mmHg 37%
    22:00 +12°C° 0 mm 1 mps 622 mmHg 38%
    23:00 +12°C° 0 mm 1 mps 622 mmHg 38%

    24 November, Saturday

    Time Temperature Precipitation Wind Pressure Humidity
    00:00 +11°C° 0 mm 1 mps 621 mmHg 39%
    01:00 +11°C° 0 mm 1 mps 621 mmHg 40%
    02:00 +11°C° 0 mm 1 mps 621 mmHg 41%
    03:00 +11°C° 0 mm 1 mps 621 mmHg 42%
    04:00 +11°C° 0 mm 1 mps 621 mmHg 42%
    05:00 +11°C° 0 mm 1 mps 621 mmHg 42%
    06:00 +11°C° 0 mm 1 mps 622 mmHg 42%
    07:00 +12°C° 0 mm 1 mps 622 mmHg 42%
    08:00 +13°C° 0 mm 1 mps 623 mmHg 38%
    09:00 +15°C° 0 mm 1 mps 624 mmHg 34%
    10:00 +18°C° 0 mm 1 mps 624 mmHg 30%
    11:00 +18°C° 0 mm 2 mps 624 mmHg 28%
    12:00 +19°C° 0 mm 2 mps 624 mmHg 25%
    13:00 +20°C° 0 mm 2 mps 623 mmHg 23%
    14:00 +19°C° 0 mm 2 mps 623 mmHg 23%
    15:00 +19°C° 0 mm 2 mps 623 mmHg 23%
    16:00 +19°C° 0 mm 2 mps 623 mmHg 23%
    17:00 +18°C° 0 mm 1 mps 623 mmHg 25%
    18:00 +16°C° 0 mm 1 mps 622 mmHg 28%
    19:00 +14°C° 0 mm 1 mps 622 mmHg 30%
    20:00 +14°C° 0 mm 1 mps 622 mmHg 31%
    21:00 +13°C° 0 mm 1 mps 622 mmHg 32%
    22:00 +13°C° 0 mm 1 mps 622 mmHg 33%
    23:00 +12°C° 0 mm 1 mps 621 mmHg 33%

    25 November, Sunday

    Time Temperature Precipitation Wind Pressure Humidity
    00:00 +12°C° 0 mm 1 mps 621 mmHg 33%
    01:00 +12°C° 0 mm 1 mps 621 mmHg 34%
    02:00 +11°C° 0 mm 1 mps 620 mmHg 34%
    03:00 +10°C° 0 mm 2 mps 620 mmHg 34%
    04:00 +9°C° 0 mm 2 mps 620 mmHg 34%
    05:00 +10°C° 0 mm 2 mps 620 mmHg 33%
    06:00 +10°C° 0 mm 2 mps 621 mmHg 32%
    07:00 +11°C° 0 mm 1 mps 621 mmHg 31%
    08:00 +13°C° 0 mm 1 mps 622 mmHg 27%
    09:00 +15°C° 0 mm 1 mps 623 mmHg 23%
    10:00 +19°C° 0 mm 1 mps 623 mmHg 19%
    11:00 +19°C° 0 mm 1 mps 623 mmHg 17%
    12:00 +20°C° 0 mm 1 mps 622 mmHg 16%
    13:00 +20°C° 0 mm 2 mps 622 mmHg 15%
    14:00 +19°C° 0 mm 2 mps 622 mmHg 15%
    15:00 +19°C° 0 mm 2 mps 621 mmHg 16%
    16:00 +19°C° 0 mm 2 mps 621 mmHg 17%
    17:00 +17°C° 0 mm 2 mps 621 mmHg 20%
    18:00 +16°C° 0 mm 1 mps 621 mmHg 22%
    19:00 +15°C° 0 mm 1 mps 621 mmHg 25%
    20:00 +14°C° 0 mm 1 mps 621 mmHg 26%
    21:00 +13°C° 0 mm 1 mps 621 mmHg 28%
    22:00 +13°C° 0 mm 1 mps 620 mmHg 29%
    23:00 +13°C° 0 mm 1 mps 620 mmHg 30%
    Show more